Regional Weather Roundup
Issued by NWS

Home | Current Version | Previous Version | Text Only | Print | Product List | Glossary Off
Versions: 1 2 3 4 5 6 7 8 9 10 11 12 13 14 15 16 17 18 19 20 21 22 23 24 25 26 27 28 29 30 31 32 33 34 35 36 37 38 39 40 41 42 43 44 45 46 47 48 49 50

000
ASUS43 KLMK 040202
RWRKY
KENTUCKY REGIONAL WEATHER ROUNDUP
NATIONAL WEATHER SERVICE LOUISVILLE KY
900 PM EST SAT DEC 03 2016

NOTE "FAIR" INDICATES FEW OR NO CLOUDS BELOW 12,000 FEET
WITH NO SIGNIFICANT WEATHER AND/OR OBSTRUCTIONS TO VISIBILITY.

KYZ001>023-026-027-061>063-070>075-040300-
WESTERN AND SOUTH CENTRAL KENTUCKY

CITY           SKY/WX    TMP DP  RH WIND       PRES   REMARKS
PADUCAH        CLOUDY    43  30  60 E7        30.27S
HENDERSON      CLOUDY    41  28  60 E6        30.29S
OWENSBORO      CLOUDY    42  30  62 E5        30.30F
HOPKINSVILLE   CLOUDY    41  32  72 NE5       30.27F
BOWLING GREEN  CLOUDY    41  33  73 NE5       30.29F
GLASGOW        NOT AVBL
$$

KYZ024-025-028>034-038-045-046-053-040300-
NORTH CENTRAL KENTUCKY

CITY           SKY/WX    TMP DP  RH WIND       PRES   REMARKS
LOUISVILLE/SDF CLOUDY    42  27  55 E5        30.30F
LOUISVILLE/LOU MOCLDY    41  28  60 E3        30.30F
FORT KNOX      CLOUDY    40  29  64 E6        30.28S
$$

KYZ035>037-039>044-047>052-055>060-089>105-040300-
NORTHEAST KENTUCKY

CITY           SKY/WX    TMP DP  RH WIND       PRES   REMARKS
LEXINGTON      MOCLDY    39  28  64 E5        30.29F
COVINGTON      CLOUDY    36  29  75 N5        30.29F WCI  32
FRANKFORT      MOCLDY    38  29  70 E3        30.29S
$$

KYZ054-064>069-076>088-106>120-040300-
SOUTHEAST KENTUCKY

CITY           SKY/WX    TMP DP  RH WIND       PRES   REMARKS
JACKSON        CLOUDY    38  29  70 CALM      30.28S
LONDON         CLOUDY    39  28  64 NE3       30.28R
SOMERSET       MOCLDY    37  32  81 NE3       30.30S
MIDDLESBORO    CLOUDY    40  33  76 CALM      30.28R
MONTICELLO     CLOUDY    39  33  79 W7        30.30F WCI  34
$$




USA.gov is the U.S. government's official web portal to all federal, state and local government web resources and services.